Погода в Доброполе

Украина / Тернопольская область     49°11′42″N   25°25′34″E
темп.,
°C
ветер,
м/с
пор.,
м/с
влажн.,
%
обл.,
%
осадки,
мм/ч
давл.,
гПа
погр.,
м
17 августа, ср
ср1700:00+17з4895100 1.6 1008205
03:00+16зсз3597100 1.6 1008140
06:00+16ссз2499100 0.0 1008228
09:00+17с3493100 0.0 1010327
12:00+21ссз3474100 0.0 1010869
15:00+22с457395 0.8 1010792
18:00+23ссв556648 0.2 10111075
21:00+19ссз34825 0.2 101164
18 августа, чт
чт1800:00+17сз34915 0.0 101263
03:00+17сз35925 0.0 101284
06:00+16с34940 0.0 101277
09:00+21ссз34720 0.0 1013330
12:00+26ссз44536 0.0 10131355
15:00+28с444455 0.0 10122065
18:00+28ссв54435 0.0 10121883
21:00+22ссв33660 0.0 101334
19 августа, пт
пт1900:00+20с23690 0.0 101326
03:00+19св22730 0.0 101318
06:00+18ссз11725 0.0 101411
09:00+23всв33554 0.0 1014244
12:00+29всв34385 0.0 10131375
15:00+30св33322 0.0 10121909
18:00+30св43350 0.0 10121811
21:00+23всв47560 0.0 1012113
20 августа, сб
сб2000:00+21в35655 0.0 101385
03:00+19вюв36704 0.0 1013110
06:00+18вюв36755 0.0 1013114
09:00+23вюв46590 0.0 1013402
12:00+28вюв45430 0.0 10121531
15:00+31вюв44340 0.0 10112262
18:00+30в54346 0.0 10102179
21:00+24всв410545 0.0 1011219
21 августа, вс
вс2100:00+21в385653 0.0 1011134
03:00+19вюв36625 0.0 101099
06:00+18в33660 0.0 101048
09:00+24в35490 0.0 1010298
12:00+30вюв44350 0.0 10091627
15:00+31в4433100 0.0 10072426
18:00+30ссв223791 0.0 1006328
21:00+25в265194 0.1 1007149